Location: Kunchanapalle
(16.4623°N, 80.6176°E)
Time: 18:12:44
(UTC+00:00)

H-2A R/B - Pass Details

Date: 13 August 2020
Orbit: 733 x 837 km, 98.2° (Epoch: 18 September)

Event Time Altitude Azimuth Distance (km) Brightness Sun altitude
Exits shadow 14:25:14 - 177° (S) 2,822 4.7 -19.4°
Reaches altitude 10° 14:26:23 10° 180° (S) 2,372 4.3 -19.7°
Maximum altitude 14:31:32 59° 259° (WSW) 907 2.6 -20.8°
Drops below altitude 10° 14:36:33 10° 338° (NNW) 2,309 5.1 -21.9°
Sets 14:38:51 0° 342° (NNW) 3,221 5.8 -22.4°
